Weather past 2 weeks in Cayenne, French Guiana

Now
70 °F

Clear.


Feels Like: 70 °F
Forecast: 74 / 86 °F
Wind: No wind

Location: Cayenne / Rochambeau

Current Time: Aug 29, 2014 at 6:04:21 AM

Latest Report: Aug 29, 2014 at 5:30 AM


Visibility: N/A

Pressure: 29.92 "Hg

Humidity: 94%

Dew point: 68 °F

Location of CayenneLocation

Historic Weather in Cayenne — Graph

°F

Cayenne temperature yesterday

Maximum temperature yesterday: 90 °F (at 1:30 PM)
Minimum temperature yesterday: 70 °F (at 3:30 AM)
Average temperature yesterday: 79 °F

Past Weeks' High & Low Weather Summary

 TemperatureHumidityPressure
High91 °F (Aug 15, 1:30 PM)100% (Aug 14, 5:30 AM)30.01 "Hg (Aug 14, 5:30 AM)
Low70 °F (Aug 28, 3:30 AM)46% (Aug 27, 4:00 PM)29.80 "Hg (Aug 18, 2:30 PM)
Average80 °F80%29.91 "Hg
* Reported Aug 14 5:00 AM — Aug 29 5:00 AM, Cayenne, Weather by CustomWeather, © 2014

Note: Actual official high and low records may vary slightly from our data, if they occured in-between our weather recording intervals... More about our weather records

Advertising

Cayenne weather history for previous 24 hours

 ConditionsComfort  
Time TempWeatherWind HumidityBarometerVisibility
5:00 AM
Aug 29
70 °FClear.1 mph94%29.92 "HgN/A
4:30 AM72 °FClear.No wind88%29.92 "HgN/A
4:00 AM72 °FClear.1 mph94%29.92 "HgN/A
3:30 AM73 °FClear.No wind89%29.92 "HgN/A
3:00 AM73 °FClear.No wind89%29.92 "HgN/A
2:30 AM73 °FClear.2 mph89%29.92 "HgN/A
2:00 AM73 °FClear.3 mph89%29.92 "HgN/A
1:30 AM73 °FClear.2 mph89%29.92 "HgN/A
1:00 AM73 °FClear.2 mph94%29.92 "HgN/A
12:30 AM73 °FClear.No wind89%29.95 "HgN/A
12:00 AM73 °FClear.No wind94%29.95 "HgN/A
11:30 PM
Aug 28
73 °FClear.1 mph94%29.95 "HgN/A
11:00 PM73 °FClear.No wind89%29.95 "HgN/A
10:30 PM75 °FClear.2 mph89%29.95 "HgN/A
10:00 PM77 °FClear.2 mph83%29.95 "HgN/A
9:30 PM77 °FClear.3 mph83%29.95 "HgN/A
9:00 PM79 °FClear.5 mph79%29.92 "HgN/A
8:30 PM79 °FClear.3 mph79%29.92 "HgN/A
8:00 PM79 °FClear.5 mph79%29.89 "HgN/A
7:30 PM81 °FClear.6 mph74%29.89 "HgN/A
7:00 PM81 °FClear.6 mph74%29.89 "HgN/A
6:30 PM82 °FClear.9 mph70%29.89 "HgN/A
6:00 PM84 °FClear.10 mph66%29.86 "HgN/A
5:30 PM86 °FClear.12 mph62%29.86 "HgN/A
5:00 PM88 °FClear.14 mph55%29.86 "HgN/A
4:30 PM88 °FClear.14 mph59%29.86 "HgN/A
4:00 PM88 °FClear.14 mph59%29.86 "HgN/A
3:30 PM90 °FClear.13 mph55%29.86 "HgN/A
3:00 PM90 °FClear.12 mph52%29.89 "HgN/A
2:30 PM90 °FClear.13 mph52%29.89 "HgN/A
2:00 PM90 °FClear.12 mph52%29.89 "HgN/A
1:30 PM90 °FScattered clouds.8 mph55%29.89 "HgN/A
1:00 PM88 °FClear.6 mph59%29.92 "HgN/A
12:30 PM88 °FPartly sunny.6 mph59%29.92 "HgN/A
12:00 PM88 °FPassing clouds.7 mph62%29.92 "HgN/A
11:30 AM86 °FBroken clouds.5 mph59%29.95 "HgN/A
11:00 AM86 °FPartly sunny.6 mph62%29.95 "HgN/A
10:30 AM86 °FPartly sunny.7 mph62%29.95 "HgN/A
10:00 AM82 °FPartly sunny.6 mph70%29.95 "HgN/A
9:30 AM82 °FPassing clouds.3 mph74%29.95 "HgN/A
9:00 AM81 °FClear.3 mph84%29.95 "HgN/A
8:30 AM77 °FClear.No wind89%29.95 "HgN/A
8:00 AM73 °FClear.No wind94%29.95 "HgN/A
7:30 AM72 °FClear.No wind94%29.92 "HgN/A
7:00 AM70 °FClear.No wind94%29.92 "HgN/A
6:30 AM70 °FClear.No wind94%29.92 "HgN/A
6:00 AM70 °FPassing clouds.No wind94%29.92 "HgN/A
Weather by CustomWeather, © 2014

See weather overviewHow to use our weather pages